Accueil
METAR-TAF:

METAR-TAF

Aéroports :

Aérodrome de Melun-Villaroche

Melun, France

latitude: 48-37N, longitude: 002-41E, altitude: 95 m

Observation

Le bulletin a été fait il y a 11 minutes, à 10:00 UTC
Vent 4 kt de nord/nord-est, variant entre nord-ouest et est
Température 15°C
Humidité 67%
Pression 1030 hPa
Visibilité: 8000 m

METAR: LFPM 201000Z AUTO 02004KT 310V100 8000 NSC 15/09 Q1030

Heure: 12:11 (10:11 UTC)


TAF: absent

Observations et prévisions météorologiques de plus de 4000 aéroports (messages METAR et TAF).

Les stations disponibles sont représentées par des disques jaunes et rouges sur la carte.

Passer la souris dessus pour voir le nom de la station.

Cliquer dessus pour voir les observations et prévisions météorologiques.

Pour changer de carte: cliquez sur les boutons verts avec une croix noire pour zoomer, sur le bouton vert avec un tiret pour effectuer un zoom arrière, ou sur les flèches vertes pour les cartes adjacentes.


METAR-TAF: